TimeEDT,TemperatureF,Dew PointF,Humidity,Sea Level PressureIn,VisibilityMPH,Wind Direction,Wind SpeedMPH,Gust SpeedMPH,PrecipitationIn,Events,Conditions,WindDirDegrees,DateUTC
12:53 AM,64.0,60.1,87,30.10,10.0,South,3.5,-,N/A,,Clear,190,2013-07-05 04:53:00
1:53 AM,60.1,59.0,96,30.10,10.0,SSW,3.5,-,N/A,,Clear,200,2013-07-05 05:53:00
2:53 AM,64.9,59.0,81,30.09,10.0,SW,3.5,-,N/A,,Clear,230,2013-07-05 06:53:00
3:53 AM,64.9,60.1,84,30.08,10.0,Calm,Calm,-,N/A,,Clear,0,2013-07-05 07:53:00
4:53 AM,57.9,55.9,93,30.09,7.0,SSW,3.5,-,N/A,,Clear,210,2013-07-05 08:53:00
5:53 AM,57.0,55.9,96,30.10,5.0,Calm,Calm,-,0.02,,Clear,0,2013-07-05 09:53:00
6:53 AM,63.0,59.0,87,30.10,8.0,Calm,Calm,-,N/A,,Clear,0,2013-07-05 10:53:00
7:53 AM,68.0,61.0,78,30.10,8.0,SW,4.6,-,N/A,,Clear,230,2013-07-05 11:53:00
8:53 AM,70.0,62.1,76,30.10,8.0,WSW,8.1,-,N/A,,Clear,240,2013-07-05 12:53:00
9:53 AM,72.0,63.0,73,30.11,9.0,West,4.6,-,N/A,,Clear,260,2013-07-05 13:53:00
10:53 AM,75.0,63.0,66,30.11,10.0,SSW,4.6,-,N/A,,Clear,210,2013-07-05 14:53:00
11:53 AM,77.0,64.0,64,30.11,10.0,SSW,5.8,-,N/A,,Clear,200,2013-07-05 15:53:00
12:53 PM,80.1,62.1,54,30.10,10.0,WSW,5.8,-,N/A,,Clear,240,2013-07-05 16:53:00
1:53 PM,82.0,62.1,51,30.09,10.0,WSW,8.1,-,N/A,,Clear,240,2013-07-05 17:53:00
2:53 PM,82.9,59.0,44,30.07,10.0,Variable,4.6,-,N/A,,Clear,0,2013-07-05 18:53:00
3:53 PM,84.0,59.0,43,30.06,10.0,Variable,5.8,-,N/A,,Clear,0,2013-07-05 19:53:00
4:53 PM,82.0,57.9,44,30.05,10.0,WSW,8.1,-,N/A,,Partly Cloudy,250,2013-07-05 20:53:00
5:53 PM,82.9,61.0,47,30.04,10.0,WSW,9.2,-,N/A,,Clear,250,2013-07-05 21:53:00
6:53 PM,82.0,60.1,47,30.03,10.0,WSW,9.2,-,N/A,,Clear,250,2013-07-05 22:53:00
7:53 PM,81.0,60.1,49,30.03,10.0,WSW,9.2,-,N/A,,Clear,240,2013-07-05 23:53:00
8:53 PM,78.1,61.0,56,30.04,10.0,SW,5.8,-,N/A,,Clear,230,2013-07-06 00:53:00
9:53 PM,73.0,62.1,68,30.06,10.0,SSW,5.8,-,N/A,,Clear,200,2013-07-06 01:53:00
10:53 PM,72.0,62.1,71,30.07,10.0,SW,3.5,-,N/A,,Clear,220,2013-07-06 02:53:00
11:53 PM,69.1,62.1,78,30.07,10.0,SSW,3.5,-,N/A,,Clear,200,2013-07-06 03:53:00